�������l�o���
Date,Time,MP-1(��Sv/h),MP-2(��Sv/h),MP-3(��Sv/h),MP-4(��Sv/h),MP-5(��Sv/h),MP-6(��Sv/h),MP-7(��Sv/h),MP-8(��Sv/h),����,����(m/s),���J
2014/03/25,00:00,2.4,4.4,4.9,4.4,4.6,2.0,2.5,2.8,��쐼,3.6,��
2014/03/25,00:10,2.4,4.4,4.9,4.4,4.6,2.0,2.5,2.8,��,3.4,��
2014/03/25,00:20,2.4,4.4,4.9,4.4,4.6,2.0,2.5,2.7,��쐼,4.9,��
2014/03/25,00:30,2.4,4.4,4.9,4.4,4.6,2.0,2.5,2.7,��쐼,5.3,��
2014/03/25,00:40,2.4,4.4,4.9,4.4,4.6,2.0,2.5,2.8,�쐼,7.4,��
2014/03/25,00:50,2.4,4.4,4.9,4.4,4.6,2.0,2.5,2.7,�쐼,6.8,��
2014/03/25,01:00,2.4,4.4,4.9,4.4,4.6,2.0,2.5,2.8,�쐼,6.3,��
2014/03/25,01:10,2.4,4.4,4.9,4.4,4.6,2.0,2.5,2.8,��쐼,6.3,��
2014/03/25,01:20,2.4,4.4,4.9,4.4,4.6,2.0,2.5,2.7,��쐼,6.0,��
2014/03/25,01:30,2.4,4.4,4.9,4.4,4.6,2.0,2.5,2.8,��,6.7,��
2014/03/25,01:40,2.4,4.4,4.9,4.4,4.6,2.0,2.5,2.8,��,6.0,��
2014/03/25,01:50,2.4,4.4,4.9,4.4,4.6,2.0,2.5,2.8,��,5.3,��
2014/03/25,02:00,2.4,4.4,4.9,4.4,4.6,2.0,2.5,2.8,��쐼,4.8,��
2014/03/25,02:10,2.4,4.4,4.9,4.4,4.6,2.0,2.5,2.7,��,4.6,��
2014/03/25,02:20,2.4,4.4,4.9,4.4,4.6,2.0,2.5,2.7,��,4.2,��
2014/03/25,02:30,2.4,4.4,4.9,4.4,4.6,2.0,2.5,2.8,��,4.4,��
2014/03/25,02:40,2.4,4.4,4.9,4.4,4.6,2.0,2.5,2.8,��,4.7,��
2014/03/25,02:50,2.4,4.4,4.9,4.4,4.6,2.0,2.5,2.8,��,5.7,��
2014/03/25,03:00,2.4,4.4,4.9,4.4,4.6,2.0,2.5,2.8,��,5.8,��
2014/03/25,03:10,2.4,4.4,4.9,4.4,4.6,2.0,2.5,2.8,��,5.5,��
2014/03/25,03:20,2.4,4.4,4.9,4.4,4.6,2.0,2.5,2.7,��쐼,5.0,��
2014/03/25,03:30,2.4,4.4,4.9,4.4,4.6,2.0,2.5,2.8,��쐼,6.3,��
2014/03/25,03:40,2.4,4.4,4.9,4.4,4.6,2.0,2.5,2.8,��쐼,3.6,��
2014/03/25,03:50,2.4,4.4,4.9,4.4,4.6,2.0,2.5,2.8,��쐼,4.3,��
2014/03/25,04:00,2.4,4.4,4.9,4.4,4.6,2.0,2.5,2.8,��,4.3,��
2014/03/25,04:10,2.4,4.4,4.9,4.4,4.6,2.0,2.5,2.8,��쐼,3.4,��
2014/03/25,04:20,2.4,4.4,4.9,4.4,4.6,2.0,2.5,2.8,��쐼,3.1,��
2014/03/25,04:30,2.4,4.4,4.9,4.4,4.6,2.0,2.5,2.7,��쐼,2.3,��
2014/03/25,04:40,2.4,4.4,4.9,4.4,4.6,2.0,2.5,2.8,��쐼,2.4,��
2014/03/25,04:50,2.4,4.4,4.9,4.4,4.6,2.0,2.5,2.7,��쐼,2.0,��
2014/03/25,05:00,2.4,4.4,4.9,4.4,4.6,2.0,2.5,2.7,��쐼,3.7,��
2014/03/25,05:10,2.4,4.4,4.9,4.4,4.6,2.0,2.5,2.7,��,2.9,��
2014/03/25,05:20,2.4,4.4,4.9,4.4,4.6,2.0,2.5,2.8,��쐼,4.2,��
2014/03/25,05:30,2.4,4.4,4.9,4.4,4.6,2.0,2.5,2.7,��쐼,3.8,��
2014/03/25,05:40,2.4,4.4,4.9,4.4,4.6,2.0,2.5,2.7,�쐼,4.7,��
2014/03/25,05:50,2.4,4.4,4.9,4.4,4.6,2.0,2.5,2.8,�쐼,4.3,��
2014/03/25,06:00,2.4,4.4,4.9,4.4,4.6,2.0,2.5,2.8,�쐼,4.9,��
2014/03/25,06:10,2.4,4.4,4.9,4.4,4.6,2.0,2.5,2.8,�쐼,3.8,��
2014/03/25,06:20,2.4,4.4,4.9,4.4,4.6,2.0,2.5,2.7,�쐼,3.0,��
2014/03/25,06:30,2.4,4.4,4.9,4.4,4.6,2.0,2.5,2.7,�쐼,2.2,��
2014/03/25,06:40,2.4,4.4,4.9,4.4,4.6,2.0,2.5,2.8,�쐼,1.4,��
2014/03/25,06:50,2.4,4.4,4.9,4.4,4.6,2.0,2.5,2.8,��쐼,1.6,��
2014/03/25,07:00,2.4,4.4,4.9,4.4,4.6,2.0,2.5,2.8,��쐼,1.4,��
2014/03/25,07:10,2.4,4.4,4.9,4.4,4.6,2.0,2.5,2.8,��쐼,1.3,��
2014/03/25,07:20,2.4,4.4,4.9,4.4,4.6,2.0,2.5,2.8,�쐼,2.0,��
2014/03/25,07:30,2.4,4.4,4.9,4.4,4.6,2.0,2.5,2.8,�쐼,2.3,��
2014/03/25,07:40,2.4,4.4,4.9,4.4,4.6,2.0,2.5,2.7,�쐼,2.2,��
2014/03/25,07:50,2.4,4.4,4.9,4.4,4.6,2.0,2.5,2.8,�쐼,3.1,��
2014/03/25,08:00,2.4,4.4,4.9,4.4,4.6,2.0,2.5,2.7,�쐼,3.7,��
2014/03/25,08:10,2.4,4.4,4.9,4.4,4.6,2.0,2.5,2.8,�쐼,4.7,��
2014/03/25,08:20,2.4,4.4,4.9,4.4,4.6,2.0,2.5,2.8,�쐼,5.1,��
2014/03/25,08:30,2.4,4.4,4.9,4.4,4.6,2.0,2.5,2.8,�쐼,5.8,��
2014/03/25,08:40,2.4,4.4,4.9,4.4,4.6,2.0,2.5,2.7,�쐼,5.2,��
2014/03/25,08:50,2.4,4.4,4.9,4.4,4.6,2.0,2.5,2.8,�쐼,5.7,��
2014/03/25,09:00,2.4,4.4,4.9,4.4,4.6,2.0,2.5,2.8,�쐼,5.1,��
2014/03/25,09:10,2.4,4.4,4.9,4.4,4.6,2.0,2.5,2.8,��쐼,6.0,��
2014/03/25,09:20,2.4,4.4,4.9,4.4,4.6,2.0,2.5,2.8,��쐼,5.1,��
2014/03/25,09:30,2.4,4.4,4.9,4.4,4.6,2.0,2.5,2.7,��쐼,4.7,��
2014/03/25,09:40,2.4,4.4,4.9,-,4.6,2.0,2.5,2.8,��쐼,4.1,��
2014/03/25,09:50,2.4,4.4,4.9,-,4.6,2.0,2.5,2.8,��쐼,3.2,��
2014/03/25,10:00,2.4,4.4,4.9,-,4.6,2.0,2.5,2.8,��쐼,3.8,��
2014/03/25,10:10,2.4,4.4,4.9,-,4.6,2.0,2.5,2.7,�쐼,4.1,��
2014/03/25,10:20,2.4,4.4,4.9,-,4.6,2.0,2.5,2.8,�쐼,5.1,��
2014/03/25,10:30,2.4,4.4,4.9,-,4.6,2.0,2.5,2.8,�쐼,7.4,��
2014/03/25,10:40,2.4,4.4,4.9,-,4.7,2.0,2.5,2.7,���쐼,8.2,��
2014/03/25,10:50,2.4,4.4,4.9,-,4.6,2.0,2.5,2.8,�쐼,7.7,��
2014/03/25,11:00,2.4,4.4,4.9,-,4.6,2.0,2.5,2.8,��,8.5,��
2014/03/25,11:10,2.4,4.4,4.9,-,4.7,2.0,2.5,2.8,���쐼,8.8,��
2014/03/25,11:20,2.4,4.4,5.0,-,4.7,2.0,2.5,2.8,���쐼,8.5,��
2014/03/25,11:30,2.4,4.4,5.0,-,4.7,2.0,2.5,2.8,��,9.0,��
2014/03/25,11:40,2.4,4.4,5.0,4.4,4.7,2.0,2.5,2.8,��,8.8,��
2014/03/25,11:50,2.4,4.4,5.0,4.4,4.7,2.0,2.5,2.8,���쐼,7.5,��
2014/03/25,12:00,2.4,4.4,5.0,4.4,4.7,2.0,2.5,2.8,��,9.3,��
2014/03/25,12:10,2.4,4.4,5.0,4.4,4.7,2.0,2.5,2.8,���쐼,7.2,��
2014/03/25,12:20,2.4,4.4,5.0,4.4,4.7,2.0,2.5,2.8,��,6.3,��
2014/03/25,12:30,2.4,4.4,5.0,4.4,4.7,2.0,2.5,2.8,��,6.0,��
2014/03/25,12:40,2.4,4.4,5.0,4.4,4.7,2.0,2.5,2.8,��,7.4,��
2014/03/25,12:50,2.4,4.4,5.0,4.4,4.7,2.0,2.5,2.8,���k��,6.9,��
2014/03/25,13:00,2.4,4.4,5.0,4.4,4.7,2.0,2.5,2.8,��,8.2,��
2014/03/25,13:10,2.4,4.4,5.0,4.4,4.7,-,2.5,2.8,���쐼,4.7,��
2014/03/25,13:20,2.4,4.4,5.0,4.4,4.7,-,2.5,2.8,���쐼,6.6,��
2014/03/25,13:30,2.4,4.4,5.0,4.4,4.7,-,2.5,2.8,��,6.8,��
2014/03/25,13:40,2.4,4.4,5.0,4.4,4.7,-,2.5,2.8,��,6.6,��
2014/03/25,13:50,2.4,4.4,5.0,4.4,4.7,-,2.5,2.8,��,7.7,��
2014/03/25,14:00,2.4,4.4,5.0,4.4,4.7,-,2.5,2.8,��,9.9,��
2014/03/25,14:10,2.4,4.4,5.0,4.4,4.7,-,2.5,2.8,��,13.2,��
2014/03/25,14:20,2.4,4.4,5.0,4.4,4.7,-,2.5,2.8,��,10.8,��
2014/03/25,14:30,2.4,4.4,5.0,4.4,4.7,-,2.5,2.8,���쐼,11.6,��
2014/03/25,14:40,2.4,4.4,5.0,4.4,4.7,-,2.5,2.8,���쐼,9.4,��
2014/03/25,14:50,2.4,4.4,5.0,4.4,4.7,-,2.5,2.8,��,11.0,��
2014/03/25,15:00,2.4,4.4,5.0,4.4,4.7,-,2.5,2.8,��,9.6,��
2014/03/25,15:10,2.4,4.4,5.0,4.4,4.7,2.0,2.5,2.8,��,12.3,��
2014/03/25,15:20,2.4,4.4,5.0,4.4,4.7,2.0,2.5,2.8,��,13.0,��
2014/03/25,15:30,2.4,4.4,5.0,4.4,4.7,2.0,2.5,2.8,���k��,15.8,��
2014/03/25,15:40,2.4,4.4,5.0,4.4,4.7,2.1,2.5,2.8,��,15.2,��
2014/03/25,15:50,2.4,4.4,5.0,4.5,4.7,2.1,2.5,2.8,��,14.1,��
2014/03/25,16:00,2.4,4.4,5.0,4.4,4.7,2.1,2.5,2.8,��,13.2,��
2014/03/25,16:10,2.4,4.4,5.0,4.5,4.7,2.0,2.5,2.8,��,13.8,��
2014/03/25,16:20,2.4,4.4,5.0,4.5,4.7,2.1,2.5,2.8,��,13.2,��
2014/03/25,16:30,2.4,4.4,5.0,4.4,4.7,2.1,2.5,2.8,��,11.3,��
2014/03/25,16:40,2.4,4.4,5.0,4.4,4.7,2.1,2.5,2.8,��,12.1,��
2014/03/25,16:50,2.4,4.4,5.0,4.5,4.7,2.1,2.5,2.8,��,12.6,��
2014/03/25,17:00,2.4,4.4,5.0,4.4,4.7,2.0,2.5,2.8,��,13.5,��
2014/03/25,17:10,2.4,4.4,5.0,4.5,4.7,2.1,2.5,2.8,��,14.9,��
2014/03/25,17:20,2.4,4.4,5.0,4.5,4.7,2.0,2.5,2.8,��,12.6,��
2014/03/25,17:30,2.4,4.4,5.0,4.5,4.7,2.0,2.5,2.8,��,12.9,��
2014/03/25,17:40,2.4,4.4,5.0,4.5,4.7,2.0,2.5,2.8,��,10.4,��
2014/03/25,17:50,2.4,4.4,5.0,4.5,4.7,2.0,2.5,2.8,��,8.5,��
2014/03/25,18:00,2.4,4.4,5.0,4.5,4.7,2.0,2.5,2.8,��,5.2,��
2014/03/25,18:10,2.4,4.4,5.0,4.5,4.7,2.0,2.5,2.8,��,6.7,��
2014/03/25,18:20,2.4,4.4,5.0,4.5,4.7,2.1,2.5,2.8,��,4.5,��
2014/03/25,18:30,2.4,4.4,5.0,4.5,4.7,2.0,2.5,2.8,���쐼,4.2,��
2014/03/25,18:40,2.4,4.4,5.0,4.5,4.7,2.0,2.5,2.8,���쐼,3.5,��
2014/03/25,18:50,2.4,4.4,5.0,4.4,4.7,2.1,2.5,2.8,���쐼,2.7,��
2014/03/25,19:00,2.4,4.4,5.0,4.4,4.7,2.0,2.5,2.8,��,3.6,��
2014/03/25,19:10,2.4,4.4,5.0,4.4,4.7,2.0,2.5,2.8,���쐼,4.4,��
2014/03/25,19:20,2.4,4.4,5.0,4.4,4.7,2.0,2.5,2.8,���쐼,5.5,��
2014/03/25,19:30,2.4,4.4,5.0,4.5,4.7,2.0,2.5,2.8,���쐼,6.6,��
2014/03/25,19:40,2.4,4.4,5.0,4.5,4.7,2.0,2.5,2.8,���쐼,6.9,��
2014/03/25,19:50,2.4,4.4,5.0,4.5,4.7,2.0,2.5,2.8,���쐼,7.5,��
2014/03/25,20:00,2.4,4.4,5.0,4.4,4.7,2.0,2.5,2.8,��,8.2,��
2014/03/25,20:10,2.4,4.4,5.0,4.4,4.7,2.0,2.5,2.8,��,7.7,��
2014/03/25,20:20,2.4,4.4,5.0,4.4,4.7,2.0,2.5,2.8,��,8.3,��
2014/03/25,20:30,2.4,4.4,5.0,4.5,4.7,2.0,2.5,2.8,��,10.7,��
2014/03/25,20:40,2.4,4.4,5.0,4.4,4.7,2.0,2.5,2.8,���k��,12.1,��
2014/03/25,20:50,2.4,4.4,5.0,4.5,4.7,2.0,2.5,2.8,��,11.8,��
2014/03/25,21:00,2.4,4.4,5.0,4.4,4.7,2.0,2.5,2.8,��,12.1,��
2014/03/25,21:10,2.4,4.4,5.0,4.4,4.7,2.0,2.5,2.8,��,13.2,��
2014/03/25,21:20,2.4,4.4,5.0,4.5,4.7,2.0,2.5,2.8,��,12.6,��
2014/03/25,21:30,2.4,4.4,5.0,4.5,4.7,2.0,2.5,2.8,���쐼,10.1,��
2014/03/25,21:40,2.4,4.4,5.0,4.5,4.7,2.0,2.5,2.8,��,9.6,��
2014/03/25,21:50,2.4,4.4,5.0,4.5,4.7,2.0,2.5,2.8,��,8.9,��
2014/03/25,22:00,2.4,4.4,5.0,4.5,4.7,2.0,2.5,2.8,���쐼,9.3,��
2014/03/25,22:10,2.4,4.4,5.0,4.5,4.7,2.0,2.5,2.8,��,9.0,��
2014/03/25,22:20,2.4,4.4,5.0,4.5,4.7,2.0,2.5,2.8,��,10.5,��
2014/03/25,22:30,2.4,4.4,5.0,4.5,4.7,2.0,2.5,2.8,��,11.0,��
2014/03/25,22:40,2.4,4.4,5.0,4.5,4.7,2.0,2.5,2.8,��,9.9,��
2014/03/25,22:50,2.4,4.4,5.0,4.4,4.7,2.1,2.5,2.8,��,9.0,��
2014/03/25,23:00,2.4,4.4,5.0,4.5,4.7,2.0,2.5,2.8,��,9.4,��
2014/03/25,23:10,2.4,4.4,5.0,4.5,4.7,2.0,2.5,2.8,��,9.1,��
2014/03/25,23:20,2.4,4.4,5.0,4.5,4.7,2.0,2.5,2.8,��,10.2,��
2014/03/25,23:30,2.4,4.4,5.0,4.5,4.7,2.0,2.5,2.8,��,10.4,��
2014/03/25,23:40,2.4,4.4,5.0,4.5,4.7,2.1,2.5,2.8,��,12.4,��
2014/03/25,23:50,2.4,4.4,5.0,4.5,4.7,2.0,2.5,2.8,��,12.7,��
